Vertical_Velocity
0 1 -1 -2 -1 0 -3 -1 -1 -0 -0 -3 -2 -3 -1 -2 -2 -1 -3 3 -1 1 2 -1 1 0 0 -1 5 2 1 0 -2 1 -5 -3 -1 -9 0 9 2 -4 3 -4 5
-2 0 -1 -0 0 -1 1 -1 -1 1 -2 -1 0 1 -2 -1 -4 -2 0 -3 0 -3 -4 -5 -9 -5 -5 -2 1 -2 -0 -3 -4 -2 -2 -1 5 1 -3 -0 1 3 -0 5 -1
-1 -0 -1 -1 -1 -1 -1 1 0 -0 -0 -1 -2 -0 -1 -2 -2 0 -2 1 0 -1 -2 -0 -1 3 0 3 -0 0 -2 -3 -9 -2 4 1 -1 3 1 -1 -2 2 -6 5 -1
-1 -2 -2 -0 -0 -0 -1 -1 2 -0 -1 0 -0 -0 -3 -3 -7 -3 -5 0 2 0 0 -4 -4 -5 0 -0 0 -0 -1 2 -9 -1 3 -1 2 -2 0 -6 4 0 -0 -3 3
-1 -1 -1 -2 -3 -3 -2 -2 1 -0 -0 -1 -1 -2 -5 -3 -2 1 1 1 1 1 -1 -2 -1 -0 -0 1 -1 2 -1 0 1 1 0 6 -3 -2 -3 -2 2 3 -2 -4 -3
1 -1 -1 -0 -1 -1 -1 -1 -1 -2 -1 -1 -1 -2 -2 -4 -1 0 -2 0 -1 -0 2 1 -1 1 2 -1 -1 -0 1 -5 -4 -5 -1 4 -2 1 -3 0 -3 1 -4 10 7
-0 1 -1 -1 0 -1 -1 -1 -2 -2 -3 -1 -2 -0 -1 -3 -4 2 1 0 -1 -1 -1 1 0 1 2 -1 1 -1 0 -2 -1 -1 -2 2 -4 -2 -0 9 -4 3 10 -1 -3
0 -1 -1 0 -1 0 -0 -1 -0 0 -1 -2 -1 -1 -5 -0 0 3 -1 3 2 6 -0 3 1 2 -0 2 -4 -1 -2 -3 -6 0 -3 -4 -8 -5 5 3 4 -5 -10 -13 28
-2 -1 -2 -1 1 1 -0 -1 -0 -2 2 -3 -2 0 -4 -3 -4 -2 -2 -5 -2 1 3 2 0 0 -1 -1 -5 -3 -1 -0 -8 0 0 -4 -4 -1 6 2 1 1 2 -2 -10
-0 -2 0 -2 -2 -1 -0 1 -4 -1 -0 -1 -1 -0 -1 -4 -2 -4 -1 2 -1 -4 0 -1 -1 -2 -2 -4 -2 -2 -1 -3 0 -4 -0 -0 -3 -0 1 -3 -3 -3 -2 -10 -13
-1 1 -3 -3 -2 -3 -1 0 -1 -3 -1 1 -0 -2 -2 -2 -1 0 -1 -1 -1 -0 -2 -0 -8 -0 -1 -0 -1 1 1 1 -3 -2 -1 0 -0 -2 -2 5 2 1 -1 -8 4
2 0 -0 -0 -2 -2 -1 -5 -1 2 -10 1 -1 -3 2 -1 -4 1 -4 -3 -3 -1 -2 -10 -1 -2 1 -0 1 -0 0 -2 -6 -2 2 -1 -3 -1 -0 -2 -4 -2 2 3 -5
-1 2 -3 -1 2 -1 -4 -3 -0 -0 -1 -3 -0 -1 1 1 -2 -4 -2 0 0 -1 -0 -0 -7 0 -0 -1 -2 -1 1 -1 1 -3 -1 -1 -4 -1 -2 1 0 2 1 4 13
1 -1 3 1 -1 -3 -2 -3 -2 2 -5 -6 -0 -2 0 0 -3 1 -0 -1 -3 0 1 -1 -2 0 -1 0 -0 1 -1 1 0 -3 -3 -3 -5 -1 -1 -1 1 1 2 2 -2
2 -4 -2 -5 -3 0 0 0 -3 2 -9 -8 -2 -1 -0 1 1 -2 1 -0 -0 -1 -8 -12 -1 -1 -0 0 1 -9 3 1 0 0 -2 -7 -8 -11 -1 -2 1 -0 -4 -3 11
-4 2 -4 -0 2 1 -1 -2 0 -18 -14 -2 -1 -1 -4 -1 -1 -1 -1 1 1 -0 -1 -3 -0 0 -1 -1 1 -1 -3 -2 -2 -1 -6 -1 -6 -7 -1 1 0 -0 1 4 -6
-2 0 3 -2 1 2 0 0 -18 -8 -10 -3 -1 -0 -0 -2 -3 -0 -1 -4 -3 -9 -5 -6 -2 -2 1 -3 -4 -7 -6 -5 -11 -9 -5 -1 -5 -8 -1 -0 2 1 -1 -0 8
-4 2 -3 6 -2 3 1 -9 -2 -5 -0 -1 0 -0 -0 -0 -2 -1 -0 -1 -1 -1 -1 -1 -22 -2 -3 -1 1 0 -2 -4 -0 -1 -4 -2 -0 -10 0 1 1 0 0 -2 -4
-0 -2 -0 -1 1 -1 -0 -4 -10 -1 -0 -0 -4 0 -1 -0 1 -3 0 -1 -0 -0 -2 -2 -7 -4 0 -0 -5 -7 -5 -2 -2 -1 -2 -2 -7 -7 -1 -0 1 0 -0 -1 -3
-1 -3 -1 -3 5 -6 -6 -4 -1 0 0 -0 -0 -0 0 -1 -0 -2 -1 -2 -0 -0 -0 -2 -5 -2 -4 -1 -2 -3 -3 -10 -5 -3 -2 -4 -2 -6 -2 -2 -1 -2 1 1 0
-4 -2 -1 3 -1 1 -4 -4 0 -0 2 1 -0 -0 0 -0 0 -0 -3 -1 0 0 -0 -0 -3 -15 -5 -1 1 -7 -2 -3 -5 -3 -2 -0 -10 -5 -2 -0 -1 -0 0 -1 -2
-2 -4 -0 -2 1 1 -1 -1 1 -1 -0 -0 -0 0 0 -0 0 0 -0 0 0 -0 -0 -1 -3 -1 -6 -3 0 -0 -0 -1 -5 -7 -1 -3 -16 -0 -0 1 0 -0 -2 -1 2
-5 -2 2 -6 -2 -1 -3 -1 -0 0 -1 -0 0 -0 -0 -0 -1 0 -0 -1 1 0 -2 -3 -3 -3 -17 -12 -5 -1 -0 -0 -1 -1 -2 -3 -13 -0 -1 -2 -2 -2 -3 -2 0
-1 -5 2 -0 -0 -1 0 -2 -0 1 -1 1 0 -0 -0 -0 -0 -2 -1 -2 0 -1 1 0 -0 -6 -8 -11 -2 -0 0 -0 -0 1 -3 -7 -6 -11 -7 -1 -6 -1 2 1 -1
-2 -3 -2 -3 -2 0 1 0 -0 -1 -1 0 -1 0 0 -0 -1 -0 -1 -3 -2 -0 1 -4 -1 1 -2 -1 1 -0 1 -1 1 -5 -2 -8 -0 -4 -1 1 -1 -2 -0 0 0
0 -3 2 1 -0 1 -0 -2 0 -2 1 -0 -0 -0 0 -0 -1 -2 1 -1 -2 -2 0 0 -3 1 -1 -0 2 1 -1 0 -0 0 1 2 -7 2 -5 -3 -4 2 2 2 0
-1 1 -0 2 0 -2 -3 -1 0 -0 -1 1 -1 -0 0 -3 -1 -2 -1 -0 -4 -0 -0 0 -1 -1 -4 0 -1 -4 -1 -0 1 -0 1 0 4 -0 -6 -2 2 -2 6 10 11
Height
1552 1552 1551 1551 1549 1548 1546 1545 1543 1540 1538 1536 1533 1531 1529 1527 1526 1524 1521 1521 1518 1515 1513 1511 1509 1508 1506 1504 1504 1504 1507 1508 1504 1499 1493 1489 1487 1480 1475 1472 1470 1474 1477 1479 1482
1553 1552 1551 1550 1549 1548 1546 1545 1543 1541 1538 1536 1533 1530 1528 1527 1525 1523 1522 1519 1518 1515 1513 1510 1508 1506 1504 1503 1502 1502 1508 1504 1497 1494 1491 1487 1487 1482 1478 1472 1471 1471 1474 1478 1483
1554 1553 1552 1551 1549 1547 1546 1545 1543 1541 1538 1536 1534 1531 1528 1525 1525 1523 1521 1519 1517 1515 1513 1511 1509 1506 1504 1503 1501 1499 1502 1495 1491 1489 1487 1485 1482 1479 1477 1472 1471 1470 1473 1477 1483
1554 1553 1551 1550 1549 1547 1545 1544 1543 1541 1538 1536 1533 1531 1529 1526 1530 1523 1520 1518 1517 1515 1512 1510 1508 1506 1505 1504 1500 1500 1492 1490 1486 1484 1483 1481 1478 1474 1473 1471 1468 1469 1472 1479 1482
1555 1553 1552 1550 1548 1547 1545 1544 1542 1540 1538 1536 1533 1531 1529 1527 1526 1523 1520 1518 1516 1513 1512 1510 1508 1506 1506 1502 1499 1495 1488 1486 1482 1480 1478 1477 1474 1472 1469 1469 1470 1470 1472 1473 1479
1555 1553 1552 1550 1548 1546 1545 1543 1541 1540 1538 1535 1533 1530 1529 1528 1525 1522 1519 1517 1514 1512 1511 1510 1508 1506 1503 1499 1499 1490 1487 1480 1476 1474 1475 1474 1471 1470 1466 1466 1468 1469 1472 1468 1475
1555 1554 1553 1550 1548 1546 1543 1542 1540 1538 1537 1535 1532 1529 1528 1528 1523 1521 1519 1516 1513 1511 1509 1508 1507 1505 1502 1497 1492 1488 1486 1475 1469 1468 1471 1471 1471 1467 1463 1464 1466 1467 1470 1477 1478
1556 1554 1552 1550 1548 1545 1542 1539 1537 1536 1535 1534 1532 1529 1526 1524 1522 1521 1518 1514 1512 1510 1507 1506 1505 1503 1501 1496 1490 1489 1485 1487 1469 1467 1467 1471 1476 1462 1462 1462 1465 1470 1472 1475 1477
1556 1554 1552 1549 1547 1545 1541 1539 1535 1534 1533 1532 1531 1529 1526 1524 1521 1520 1516 1513 1510 1507 1505 1504 1503 1503 1500 1500 1500 1495 1497 1487 1475 1468 1466 1468 1472 1465 1463 1464 1467 1471 1470 1474 1473
1557 1554 1552 1550 1547 1544 1541 1536 1534 1533 1532 1531 1530 1531 1526 1524 1520 1518 1515 1512 1509 1507 1505 1504 1503 1504 1503 1506 1513 1503 1498 1489 1483 1474 1469 1470 1471 1466 1466 1463 1465 1468 1468 1470 1478
1557 1555 1552 1549 1547 1544 1541 1537 1537 1535 1532 1530 1530 1529 1526 1524 1520 1518 1514 1512 1510 1508 1510 1506 1511 1512 1505 1502 1500 1499 1496 1491 1479 1472 1473 1470 1469 1465 1463 1464 1464 1465 1467 1472 1477
1557 1554 1552 1549 1546 1544 1541 1538 1539 1539 1532 1529 1528 1527 1525 1523 1520 1517 1515 1513 1511 1513 1510 1511 1513 1503 1500 1496 1496 1492 1494 1493 1481 1472 1474 1469 1467 1463 1462 1461 1461 1461 1465 1468 1474
1556 1553 1551 1549 1546 1544 1541 1541 1538 1536 1535 1528 1527 1526 1525 1524 1521 1518 1516 1514 1513 1513 1513 1515 1507 1501 1499 1497 1498 1495 1491 1492 1491 1478 1470 1470 1471 1466 1466 1463 1464 1464 1465 1471 1470
1556 1554 1551 1549 1548 1544 1542 1540 1539 1538 1540 1529 1527 1527 1525 1523 1521 1518 1516 1517 1514 1515 1512 1512 1503 1504 1501 1497 1498 1498 1486 1486 1486 1487 1490 1476 1487 1470 1468 1465 1465 1464 1464 1463 1464
1554 1553 1551 1548 1547 1544 1544 1540 1538 1540 1563 1529 1527 1526 1524 1525 1522 1519 1517 1515 1516 1515 1516 1512 1507 1506 1505 1499 1497 1495 1486 1486 1482 1484 1488 1482 1493 1480 1468 1469 1467 1465 1466 1467 1468
1553 1550 1548 1547 1545 1543 1541 1539 1539 1552 1559 1529 1526 1525 1525 1523 1521 1519 1518 1517 1515 1514 1514 1512 1507 1506 1504 1498 1495 1491 1487 1488 1490 1493 1502 1491 1497 1489 1479 1471 1469 1467 1465 1465 1473
1551 1549 1547 1545 1544 1541 1539 1539 1553 1561 1530 1529 1528 1525 1526 1524 1521 1520 1520 1521 1525 1530 1527 1517 1509 1505 1503 1501 1496 1497 1502 1517 1514 1515 1509 1496 1500 1487 1479 1475 1474 1470 1467 1467 1469
1549 1547 1546 1544 1542 1540 1540 1542 1549 1535 1530 1527 1526 1526 1526 1524 1522 1521 1522 1527 1523 1525 1536 1538 1531 1509 1506 1507 1509 1507 1509 1528 1514 1518 1515 1497 1492 1488 1478 1474 1473 1471 1469 1468 1468
1546 1544 1544 1542 1540 1541 1541 1556 1545 1536 1531 1530 1527 1527 1526 1524 1525 1524 1523 1526 1524 1524 1529 1533 1524 1510 1507 1507 1507 1506 1516 1510 1515 1515 1520 1509 1492 1482 1478 1475 1474 1473 1473 1471 1469
1544 1543 1540 1540 1539 1538 1543 1544 1535 1532 1532 1530 1532 1528 1529 1527 1526 1526 1523 1521 1522 1523 1524 1526 1532 1512 1509 1507 1506 1506 1509 1516 1524 1518 1516 1514 1509 1502 1482 1477 1477 1475 1476 1477 1477
1543 1542 1540 1540 1539 1538 1547 1544 1533 1531 1533 1532 1531 1530 1529 1529 1527 1527 1524 1521 1520 1522 1523 1525 1531 1522 1513 1513 1513 1513 1512 1515 1519 1525 1522 1530 1511 1486 1482 1479 1477 1478 1478 1478 1476
1542 1543 1541 1541 1542 1539 1540 1535 1536 1533 1532 1531 1531 1531 1530 1528 1529 1527 1526 1522 1521 1521 1523 1524 1532 1535 1517 1513 1511 1508 1511 1518 1529 1525 1529 1531 1516 1481 1481 1481 1481 1479 1477 1474 1473
1537 1539 1538 1539 1545 1543 1536 1534 1533 1533 1533 1533 1531 1531 1530 1530 1531 1527 1524 1522 1522 1522 1522 1524 1531 1539 1524 1516 1512 1510 1508 1511 1519 1526 1527 1530 1509 1482 1481 1478 1477 1477 1475 1471 1468
1536 1538 1536 1536 1539 1540 1538 1535 1532 1531 1532 1532 1532 1531 1531 1531 1529 1528 1524 1522 1521 1521 1520 1521 1528 1527 1534 1518 1516 1517 1514 1511 1515 1529 1521 1510 1496 1485 1484 1483 1475 1472 1472 1469 1467
1534 1533 1534 1538 1537 1536 1537 1536 1533 1532 1530 1529 1530 1532 1533 1534 1532 1530 1525 1524 1520 1519 1520 1523 1528 1524 1523 1517 1517 1514 1509 1511 1518 1510 1515 1493 1499 1490 1488 1482 1476 1472 1470 1469 1467
1533 1534 1532 1532 1535 1536 1536 1534 1533 1532 1531 1531 1532 1533 1533 1534 1532 1531 1528 1527 1524 1518 1520 1521 1524 1519 1519 1515 1513 1507 1504 1501 1500 1503 1507 1501 1498 1497 1490 1481 1474 1470 1469 1468 1467
1532 1530 1530 1531 1533 1538 1535 1532 1532 1531 1531 1529 1531 1531 1532 1530 1529 1527 1525 1521 1520 1518 1519 1522 1523 1526 1516 1510 1511 1506 1492 1490 1499 1503 1499 1504 1503 1497 1488 1482 1480 1476 1471 1471 1470